• In Deutschland
  • Länderverzeichnis
  • Für 7 Tage
  • Wassertemperatur
  • Satellitenkarten
  • Wetterkarte
  • Widgets
  • user-avatar
    Anmelden

    Stündliche Wetter Unterhaching

    Heute, 25 September, Dienstag

    Zeit Temperatur Niederschläge Wind Luftdruck Luftfeuchtigkeit
    00:00 +5°C° 0 mm 1 m/S 724 mmHg 81%
    01:00 +5°C° 0 mm 2 m/S 725 mmHg 80%
    02:00 +5°C° 0 mm 2 m/S 725 mmHg 81%
    03:00 +6°C° 0 mm 1 m/S 725 mmHg 82%
    04:00 +6°C° 0 mm 1 m/S 725 mmHg 83%
    05:00 +5°C° 0 mm 1 m/S 725 mmHg 84%
    06:00 +5°C° 0 mm 1 m/S 725 mmHg 85%
    07:00 +4°C° 0 mm 0 m/S 725 mmHg 86%
    08:00 +7°C° 0 mm 1 m/S 725 mmHg 78%
    09:00 +9°C° 0 mm 1 m/S 725 mmHg 69%
    10:00 +9°C° 0 mm 2 m/S 726 mmHg 61%
    11:00 +10°C° 0 mm 2 m/S 725 mmHg 56%
    12:00 +12°C° 0 mm 2 m/S 725 mmHg 52%
    13:00 +13°C° 0 mm 2 m/S 725 mmHg 48%
    14:00 +13°C° 0 mm 2 m/S 725 mmHg 49%
    15:00 +13°C° 0 mm 2 m/S 725 mmHg 51%
    16:00 +11°C° 0 mm 3 m/S 725 mmHg 52%
    17:00 +9°C° 0 mm 2 m/S 725 mmHg 59%
    18:00 +7°C° 0 mm 2 m/S 725 mmHg 66%
    19:00 +6°C° 0 mm 2 m/S 725 mmHg 73%
    20:00 +5°C° 0 mm 2 m/S 725 mmHg 74%
    21:00 +4°C° 0 mm 2 m/S 726 mmHg 76%
    22:00 +4°C° 0 mm 2 m/S 726 mmHg 77%
    23:00 +3°C° 0 mm 2 m/S 726 mmHg 78%

    Morgen, 26 September, Mittwoch

    Zeit Temperatur Niederschläge Wind Luftdruck Luftfeuchtigkeit
    00:00 +3°C° 0 mm 2 m/S 726 mmHg 79%
    01:00 +3°C° 0 mm 2 m/S 726 mmHg 79%
    02:00 +2°C° 0 mm 2 m/S 725 mmHg 78%
    03:00 +2°C° 0 mm 2 m/S 725 mmHg 77%
    04:00 +2°C° 0 mm 2 m/S 725 mmHg 76%
    05:00 +2°C° 0 mm 2 m/S 725 mmHg 74%
    06:00 +3°C° 0 mm 2 m/S 725 mmHg 71%
    07:00 +3°C° 0 mm 2 m/S 725 mmHg 69%
    08:00 +7°C° 0 mm 1 m/S 725 mmHg 61%
    09:00 +10°C° 0 mm 1 m/S 725 mmHg 54%
    10:00 +13°C° 0 mm 1 m/S 725 mmHg 46%
    11:00 +15°C° 0 mm 1 m/S 725 mmHg 44%
    12:00 +16°C° 0 mm 1 m/S 725 mmHg 42%
    13:00 +18°C° 0 mm 1 m/S 724 mmHg 40%
    14:00 +18°C° 0 mm 1 m/S 724 mmHg 43%
    15:00 +18°C° 0 mm 1 m/S 724 mmHg 47%
    16:00 +18°C° 0 mm 1 m/S 724 mmHg 50%
    17:00 +14°C° 0 mm 1 m/S 724 mmHg 58%
    18:00 +12°C° 0 mm 1 m/S 724 mmHg 66%
    19:00 +10°C° 0 mm 1 m/S 723 mmHg 73%
    20:00 +9°C° 0 mm 1 m/S 724 mmHg 74%
    21:00 +9°C° 0 mm 1 m/S 724 mmHg 74%
    22:00 +9°C° 0 mm 1 m/S 724 mmHg 74%
    23:00 +9°C° 0 mm 1 m/S 724 mmHg 74%

    übermorgen, 27 September, Donnerstag

    Zeit Temperatur Niederschläge Wind Luftdruck Luftfeuchtigkeit
    00:00 +8°C° 0 mm 1 m/S 724 mmHg 74%
    01:00 +8°C° 0 mm 1 m/S 724 mmHg 74%
    02:00 +8°C° 0 mm 1 m/S 724 mmHg 73%
    03:00 +8°C° 0 mm 1 m/S 723 mmHg 72%
    04:00 +8°C° 0 mm 1 m/S 723 mmHg 71%
    05:00 +8°C° 0 mm 1 m/S 723 mmHg 71%
    06:00 +8°C° 0 mm 1 m/S 723 mmHg 70%
    07:00 +8°C° 0 mm 1 m/S 723 mmHg 69%
    08:00 +11°C° 0 mm 1 m/S 723 mmHg 63%
    09:00 +13°C° 0 mm 0 m/S 723 mmHg 56%
    10:00 +17°C° 0 mm 0 m/S 723 mmHg 50%
    11:00 +18°C° 0 mm 0 m/S 723 mmHg 48%
    12:00 +21°C° 0 mm 1 m/S 723 mmHg 45%
    13:00 +22°C° 0 mm 1 m/S 723 mmHg 43%
    14:00 +22°C° 0 mm 1 m/S 722 mmHg 47%
    15:00 +21°C° 0 mm 1 m/S 721 mmHg 50%
    16:00 +21°C° 0 mm 1 m/S 721 mmHg 54%
    17:00 +19°C° 0 mm 1 m/S 720 mmHg 62%
    18:00 +15°C° 0 mm 1 m/S 720 mmHg 70%
    19:00 +12°C° 0 mm 1 m/S 720 mmHg 78%
    20:00 +12°C° 0 mm 1 m/S 720 mmHg 79%
    21:00 +11°C° 0 mm 1 m/S 719 mmHg 79%
    22:00 +11°C° 0 mm 1 m/S 719 mmHg 80%
    23:00 +11°C° 0 mm 1 m/S 719 mmHg 79%

    28 September, Freitag

    Zeit Temperatur Niederschläge Wind Luftdruck Luftfeuchtigkeit
    00:00 +10°C° 0 mm 1 m/S 719 mmHg 79%
    01:00 +10°C° 0 mm 1 m/S 718 mmHg 79%
    02:00 +9°C° 0 mm 2 m/S 718 mmHg 78%
    03:00 +9°C° 0 mm 2 m/S 717 mmHg 78%
    04:00 +9°C° 0 mm 2 m/S 717 mmHg 78%
    05:00 +9°C° 0 mm 2 m/S 717 mmHg 77%
    06:00 +9°C° 0 mm 2 m/S 717 mmHg 76%
    07:00 +9°C° 0 mm 2 m/S 717 mmHg 76%
    08:00 +13°C° 0 mm 2 m/S 717 mmHg 70%
    09:00 +16°C° 0 mm 2 m/S 717 mmHg 64%
    10:00 +18°C° 0 mm 2 m/S 717 mmHg 58%
    11:00 +19°C° 0 mm 2 m/S 717 mmHg 56%
    12:00 +20°C° 0 mm 2 m/S 717 mmHg 55%
    13:00 +21°C° 0 mm 2 m/S 716 mmHg 53%
    14:00 +21°C° 0 mm 2 m/S 716 mmHg 56%
    15:00 +20°C° 0 mm 2 m/S 716 mmHg 59%
    16:00 +20°C° 0 mm 2 m/S 715 mmHg 62%
    17:00 +19°C° 0 mm 1 m/S 715 mmHg 70%
    18:00 +15°C° 0 mm 1 m/S 715 mmHg 77%
    19:00 +13°C° 0 mm 1 m/S 715 mmHg 85%
    20:00 +13°C° 0 mm 1 m/S 716 mmHg 85%
    21:00 +12°C° 0 mm 1 m/S 716 mmHg 86%
    22:00 +12°C° 0 mm 1 m/S 716 mmHg 86%
    23:00 +11°C° 0 mm 1 m/S 716 mmHg 88%

    29 September, Samstag

    Zeit Temperatur Niederschläge Wind Luftdruck Luftfeuchtigkeit
    00:00 +11°C° 0 mm 1 m/S 716 mmHg 90%
    01:00 +10°C° 0 mm 1 m/S 716 mmHg 92%
    02:00 +10°C° 0 mm 1 m/S 716 mmHg 93%
    03:00 +9°C° 0 mm 1 m/S 716 mmHg 95%
    04:00 +9°C° 0 mm 1 m/S 716 mmHg 96%
    05:00 +8°C° 0 mm 1 m/S 716 mmHg 96%
    06:00 +8°C° 0 mm 1 m/S 717 mmHg 96%
    07:00 +8°C° 0 mm 1 m/S 717 mmHg 96%
    08:00 +10°C° 0 mm 1 m/S 717 mmHg 90%
    09:00 +10°C° 0 mm 2 m/S 717 mmHg 84%
    10:00 +12°C° 0 mm 2 m/S 718 mmHg 78%
    11:00 +13°C° 0 mm 2 m/S 717 mmHg 76%
    12:00 +13°C° 0 mm 2 m/S 717 mmHg 74%
    13:00 +14°C° 0 mm 2 m/S 717 mmHg 71%
    14:00 +14°C° 0 mm 2 m/S 717 mmHg 72%
    15:00 +14°C° 0 mm 2 m/S 717 mmHg 72%
    16:00 +13°C° 0 mm 2 m/S 716 mmHg 73%
    17:00 +12°C° 0 mm 2 m/S 717 mmHg 76%
    18:00 +10°C° 0 mm 2 m/S 717 mmHg 80%
    19:00 +9°C° 0 mm 2 m/S 717 mmHg 83%
    20:00 +8°C° 0 mm 2 m/S 717 mmHg 85%
    21:00 +7°C° 0 mm 2 m/S 717 mmHg 86%
    22:00 +7°C° 0 mm 2 m/S 717 mmHg 87%
    23:00 +6°C° 0 mm 2 m/S 717 mmHg 88%

    30 September, Sonntag

    Zeit Temperatur Niederschläge Wind Luftdruck Luftfeuchtigkeit
    00:00 +6°C° 0 mm 2 m/S 716 mmHg 88%
    01:00 +5°C° 0 mm 2 m/S 716 mmHg 88%
    02:00 +5°C° 0 mm 2 m/S 716 mmHg 89%
    03:00 +4°C° 0 mm 2 m/S 716 mmHg 90%
    04:00 +4°C° 0 mm 2 m/S 715 mmHg 91%
    05:00 +4°C° 0 mm 2 m/S 715 mmHg 91%
    06:00 +4°C° 0 mm 2 m/S 715 mmHg 91%
    07:00 +5°C° 0 mm 1 m/S 715 mmHg 91%
    08:00 +6°C° 0 mm 2 m/S 715 mmHg 82%
    09:00 +9°C° 0 mm 2 m/S 715 mmHg 74%
    10:00 +11°C° 0 mm 3 m/S 715 mmHg 65%
    11:00 +12°C° 0 mm 3 m/S 715 mmHg 61%
    12:00 +13°C° 0 mm 3 m/S 715 mmHg 57%
    13:00 +14°C° 0 mm 3 m/S 715 mmHg 53%
    14:00 +15°C° 0 mm 2 m/S 715 mmHg 55%
    15:00 +15°C° 0 mm 2 m/S 714 mmHg 57%
    16:00 +15°C° 0 mm 2 m/S 714 mmHg 59%
    17:00 +12°C° 0 mm 1 m/S 715 mmHg 67%
    18:00 +10°C° 0 mm 1 m/S 715 mmHg 76%
    19:00 +7°C° 0 mm 0 m/S 715 mmHg 84%
    20:00 +7°C° 0 mm 0 m/S 715 mmHg 85%
    21:00 +7°C° 0 mm 1 m/S 716 mmHg 86%
    22:00 +7°C° 0 mm 1 m/S 716 mmHg 86%
    23:00 +7°C° 0 mm 1 m/S 716 mmHg 87%
    Mehr zeigen